sat.trackr.live / text

‹ back to catalog

STARLINK-30282

NORAD 57883 · 2023-144V

PAYLOAD ACTIVE UNKNOWN

§ Identity

Operator
Country
US
Launch date
2023-09-16
Launch site
AFETR
Launch vehicle
Mass (kg)
RCS (m²)

Purposes: comms

External: N2YO · Heavens-Above · Gunter

§ Orbital elements

Epoch: 2026-09-20T08:33:06.057504Z

Period
94.27 min
Inclination
43.0015°
Eccentricity
0.0001310
Mean motion
15.27578188 rev/d
Perigee alt
482.2 km
Apogee alt
484.0 km
Semi-major
6,861.2 km
B*
3.6226e-5
RAAN
265.4472°
Arg perigee
265.4980°
Mean anomaly
94.5722°
Rev number
16,741

§ Raw data

STARLINK-302821 57883U 23144V   26263.35632011  .00000735  00000+0  36226-4 0  99922 57883  43.0015 265.4472 0001310 265.4980  94.5722 15.27578188167415

JSON: /api/v1/satellites/57883 · /tle

For live sub-satellite position, see the globe view (requires WebGL).

§ Visibility from observer

Set your observer location to see the next 7 days of passes ≥ 10°. The values pass through the URL so the page stays shareable.

No JS? Fill the form by hand. The geolocation button needs JavaScript.